FW6551 Weather Reports


time (UTC)temp
F
wind
direction
speed
knots
gust
knots
rain 1hr
in
rain 24hr
in
rain mn
in
humidity
%
barometer
mb
20260503051007 53 195 0.0 0.9 0.00 0.00 0.00 63 1010.7
20260503050503 53 45 0.9 1.7 0.00 0.00 0.00 61 1010.7
20260503050000 53 135 0.9 1.7 0.00 0.00 0.00 62 1010.5
20260503045457 52 132 0.9 2.6 0.00 0.00 0.00 61 1010.7
20260503044954 52 227 0.0 0.9 0.00 0.00 0.00 64 1010.8
20260503044451 52 198 0.9 2.6 0.00 0.00 0.00 65 1010.8
20260503043949 51 147 0.0 1.7 0.00 0.00 0.00 66 1010.8
20260503043444 51 164 0.0 2.6 0.00 0.00 0.00 67 1010.9
20260503042941 51 217 0.0 1.7 0.00 0.00 0.00 68 1011.0
20260503042438 50 174 0.0 1.7 0.00 0.00 0.00 69 1011.0
20260503041935 50 66 0.0 0.9 0.00 0.00 0.00 67 1011.1
20260503041431 50 147 0.0 0.9 0.00 0.00 0.00 67 1010.9
20260503040929 50 113 0.0 0.9 0.00 0.00 0.00 67 1011.1
20260503040426 51 130 0.0 1.7 0.00 0.00 0.00 67 1011.2
20260503035923 51 116 0.0 1.7 0.00 0.00 0.00 66 1011.2
20260503035420 51 122 0.9 1.7 0.00 0.00 0.00 64 1011.4
20260503034918 51 147 0.0 1.7 0.00 0.00 0.00 65 1011.4
20260503034415 51 128 0.0 1.7 0.00 0.00 0.00 67 1011.5
20260503033912 51 186 0.0 0.9 0.00 0.00 0.00 65 1011.7
20260503033409 51 142 0.0 1.7 0.00 0.00 0.00 66 1011.7
20260503032907 51 336 0.0 0.0 0.00 0.00 0.00 63 1011.8
20260503032406 51 135 0.0 0.9 0.00 0.00 0.00 62 1011.7
20260503031903 51 304 0.0 0.9 0.00 0.00 0.00 62 1011.8
20260503031401 51 133 0.0 0.9 0.00 0.00 0.00 63 1011.9
20260503030856 51 185 0.0 0.0 0.00 0.00 0.00 63 1012.0
20260503030353 51 185 0.0 1.7 0.00 0.00 0.00 64 1012.0
20260503025850 51 75 0.0 1.7 0.00 0.00 0.00 64 1011.8
20260503025347 51 269 1.7 2.6 0.00 0.00 0.00 64 1012.0
20260503024845 51 335 0.0 1.7 0.00 0.00 0.00 63 1012.2
20260503024341 51 164 0.0 1.7 0.00 0.00 0.00 63 1012.2
20260503023838 51 158 0.0 0.9 0.00 0.00 0.00 63 1012.0
20260503023335 51 135 0.0 0.0 0.00 0.00 0.00 64 1012.1
20260503022831 51 135 0.0 0.9 0.00 0.00 0.00 62 1012.0
20260503022326 51 186 0.0 1.7 0.00 0.00 0.00 61 1012.2
20260503021823 51 195 0.0 0.9 0.00 0.00 0.00 63 1012.2
20260503021319 51 315 0.0 0.9 0.00 0.00 0.00 64 1012.1
20260503020817 51 157 0.0 0.9 0.00 0.00 0.00 64 1012.1
20260503020315 51 217 0.0 0.9 0.00 0.00 0.00 63 1012.2
20260503015811 52 217 0.0 0.9 0.00 0.00 0.00 62 1012.2
20260503015308 52 172 0.0 1.7 0.00 0.00 0.00 59 1012.1
20260503014803 52 210 0.0 0.9 0.00 0.00 0.00 58 1012.2
20260503014302 53 193 0.0 0.0 0.00 0.00 0.00 56 1012.1
20260503013758 53 145 0.0 0.9 0.00 0.00 0.00 55 1012.1
20260503013256 54 168 0.0 0.0 0.00 0.00 0.00 55 1012.1
20260503012753 54 168 0.0 0.0 0.00 0.00 0.00 52 1012.1
20260503012250 55 168 0.0 0.9 0.00 0.00 0.00 51 1012.2
20260503011747 55 154 0.0 0.9 0.00 0.00 0.00 53 1012.2
20260503011244 56 180 0.0 1.7 0.00 0.00 0.00 48 1012.4
20260503010740 56 156 0.0 0.9 0.00 0.00 0.00 47 1012.3
20260503010237 57 197 0.0 1.7 0.00 0.00 0.00 46 1012.3
20260503005734 57 170 0.9 0.9 0.00 0.00 0.00 45 1012.3
20260503005232 57 147 0.0 1.7 0.00 0.00 0.00 44 1012.4
20260503004727 57 151 0.0 0.9 0.00 0.00 0.00 44 1012.4
20260503004226 58 182 0.9 1.7 0.00 0.00 0.00 45 1012.5
20260503003723 58 117 0.0 0.0 0.00 0.00 0.00 44 1012.4
20260503003220 58 151 0.9 0.9 0.00 0.00 0.00 44 1012.5
20260503002716 59 154 0.0 1.7 0.00 0.00 0.00 43 1012.5
20260503002213 59 212 0.0 0.9 0.00 0.00 0.00 43 1012.7
20260503001709 60 186 0.0 1.7 0.00 0.00 0.00 41 1012.6
20260503001206 60 205 0.0 1.7 0.00 0.00 0.00 41 1012.6
20260503000704 60 168 0.0 0.9 0.00 0.00 0.00 41 1012.7
20260503000203 60 132 1.7 2.6 0.00 0.00 0.00 39 1012.6
20260502235658 60 174 0.9 2.6 0.00 0.00 0.00 39 1012.7
20260502235156 60 192 0.9 2.6 0.00 0.00 0.00 41 1012.7
20260502234652 60 222 0.9 4.3 0.00 0.00 0.00 39 1012.7
20260502234149 60 208 2.6 3.5 0.00 0.00 0.00 39 1013.0
20260502233645 60 97 1.7 5.2 0.00 0.00 0.00 39 1013.3
20260502233142 60 177 0.9 6.1 0.00 0.00 0.00 39 1013.2
20260502232637 60 253 3.5 4.3 0.00 0.00 0.00 38 1013.3
20260502232135 61 218 0.9 1.7 0.00 0.00 0.00 38 1013.3
20260502231626 61 132 0.0 3.5 0.00 0.00 0.00 38 1013.4
20260502231124 61 234 1.7 7.0 0.00 0.00 0.00 38 1013.4
20260502230622 60 232 0.0 6.1 0.00 0.00 0.00 38 1013.3
20260502230120 61 261 2.6 4.3 0.00 0.00 0.00 38 1013.4
20260502225615 60 200 1.7 4.3 0.00 0.00 0.00 39 1013.6
20260502225113 60 255 2.6 4.3 0.00 0.00 0.00 38 1013.6
20260502224609 61 330 1.7 4.3 0.00 0.00 0.00 38 1013.8
20260502224106 62 198 3.5 6.1 0.00 0.00 0.00 37 1013.8
20260502223604 62 296 2.6 10.4 0.00 0.00 0.00 37 1013.8
20260502223102 63 187 2.6 8.7 0.00 0.00 0.00 34 1013.7
20260502222559 63 140 1.7 9.6 0.00 0.00 0.00 36 1013.8
20260502222055 62 278 1.7 4.3 0.00 0.00 0.00 36 1013.9
20260502221551 62 359 1.7 7.0 0.00 0.00 0.00 36 1013.7
20260502221049 64 194 1.7 4.3 0.00 0.00 0.00 35 1013.8
20260502220544 64 175 2.6 6.1 0.00 0.00 0.00 35 1013.8
20260502220041 63 281 2.6 7.0 0.00 0.00 0.00 34 1013.6
20260502215538 64 281 1.7 4.3 0.00 0.00 0.00 34 1013.8
20260502215035 64 197 0.9 6.1 0.00 0.00 0.00 34 1014.1
20260502214532 64 235 2.6 6.1 0.00 0.00 0.00 34 1014.2
20260502214030 64 171 0.9 4.3 0.00 0.00 0.00 34 1014.0
20260502213526 64 199 1.7 3.5 0.00 0.00 0.00 34 1014.1
20260502213024 62 187 2.6 7.0 0.00 0.00 0.00 36 1014.3
20260502212523 62 294 3.5 5.2 0.00 0.00 0.00 35 1014.4
20260502212020 63 177 0.9 4.3 0.00 0.00 0.00 33 1014.5
20260502211515 63 209 1.7 7.8 0.00 0.00 0.00 34 1014.4
20260502211013 64 207 7.8 7.8 0.00 0.00 0.00 33 1014.6
20260502210509 63 7 2.6 5.2 0.00 0.00 0.00 33 1014.5
20260502210007 64 219 3.5 7.8 0.00 0.00 0.00 32 1014.6
20260502205503 64 218 3.5 6.1 0.00 0.00 0.00 31 1014.5
20260502205000 63 315 0.9 7.0 0.00 0.00 0.00 34 1014.8
20260502204457 63 303 3.5 6.1 0.00 0.00 0.00 33 1014.6
20260502203955 64 208 1.7 5.2 0.00 0.00 0.00 33 1015.0
20260502203452 63 257 1.7 7.8 0.00 0.00 0.00 32 1014.9
20260502202948 62 165 3.5 7.8 0.00 0.00 0.00 32 1015.2
20260502202445 63 219 2.6 4.3 0.00 0.00 0.00 34 1015.1
20260502201943 62 185 1.7 7.0 0.00 0.00 0.00 32 1015.0
20260502201439 61 311 2.6 12.2 0.00 0.00 0.00 33 1015.2
20260502200936 62 17 2.6 7.8 0.00 0.00 0.00 31 1015.3
20260502200431 62 200 2.6 7.8 0.00 0.00 0.00 33 1015.4
20260502195929 62 203 3.5 5.2 0.00 0.00 0.00 32 1015.4
20260502195426 60 188 2.6 7.0 0.00 0.00 0.00 33 1015.8
20260502194923 63 292 5.2 7.0 0.00 0.00 0.00 30 1015.7
20260502194420 64 249 0.9 4.3 0.00 0.00 0.00 30 1015.8
20260502193915 61 292 1.7 9.6 0.00 0.00 0.00 34 1015.9
20260502193413 62 95 1.7 9.6 0.00 0.00 0.00 32 1015.9
20260502192908 62 309 2.6 5.2 0.00 0.00 0.00 31 1016.0
20260502192405 61 144 2.6 6.1 0.00 0.00 0.00 34 1016.2
20260502191902 61 226 0.0 7.8 0.00 0.00 0.00 34 1016.2
20260502191400 61 167 2.6 8.7 0.00 0.00 0.00 37 1016.2
20260502190857 61 190 4.3 8.7 0.00 0.00 0.00 33 1016.3
20260502190354 61 230 2.6 6.1 0.00 0.00 0.00 34 1016.3
20260502185850 61 310 1.7 7.0 0.00 0.00 0.00 31 1016.2
20260502185346 60 264 2.6 6.1 0.00 0.00 0.00 32 1016.5
20260502184843 61 156 3.5 6.1 0.00 0.00 0.00 31 1016.4
20260502184338 62 295 0.9 6.1 0.00 0.00 0.00 31 1016.7
20260502183836 60 177 2.6 7.8 0.00 0.00 0.00 33 1016.6
20260502183332 60 3 1.7 7.8 0.00 0.00 0.00 34 1016.7
20260502182826 59 180 2.6 7.8 0.00 0.00 0.00 33 1016.8
20260502182322 61 241 4.3 7.8 0.00 0.00 0.00 33 1016.8
20260502181819 60 213 1.7 6.1 0.00 0.00 0.00 35 1017.1
20260502181318 60 24 3.5 4.3 0.00 0.00 0.00 32 1017.1
20260502180816 59 0 1.7 6.1 0.00 0.00 0.00 33 1017.0
20260502180313 60 104 4.3 13.0 0.00 0.00 0.00 32 1017.1
20260502170232 58 168 2.6 7.8 0.00 0.00 0.00 37 1017.8
20260502164218 58 193 0.9 9.6 0.00 0.00 0.00 41 1018.1
20260502163713 58 312 2.6 6.1 0.00 0.00 0.00 37 1018.0
20260502163205 58 220 4.3 7.0 0.00 0.00 0.00 36 1018.1
20260502162702 57 248 3.5 7.0 0.00 0.00 0.00 37 1018.3
20260502162159 56 321 1.7 7.8 0.00 0.00 0.00 38 1018.2
20260502161656 57 295 1.7 5.2 0.00 0.00 0.00 37 1018.2
20260502161152 57 122 2.6 6.1 0.00 0.00 0.00 35 1018.2
20260502160651 57 288 3.5 7.0 0.00 0.00 0.00 36 1018.6
20260502160150 57 339 3.5 8.7 0.00 0.00 0.00 38 1018.4
20260502152103 56 285 3.5 7.0 0.00 0.00 0.00 38 1018.9
20260502151601 57 184 0.9 2.6 0.00 0.00 0.00 44 1018.8
20260502151058 55 180 1.7 4.3 0.00 0.00 0.00 42 1018.8
20260502150555 55 215 1.7 4.3 0.00 0.00 0.00 45 1018.8
20260502130440 42 59 1.7 5.2 0.00 0.00 0.00 67 1019.3
20260502123423 33 136 0.0 1.7 0.00 0.00 0.00 90 1019.3
20260502122920 32 154 0.0 1.7 0.00 0.00 0.00 93 1019.4
20260502122416 31 137 0.0 1.7 0.00 0.00 0.00 96 1019.4
20260502121914 30 160 0.9 1.7 0.00 0.00 0.00 97 1019.4
20260502121411 29 162 0.9 0.9 0.00 0.00 0.00 98 1019.5
20260502120909 29 147 0.0 0.9 0.00 0.00 0.00 98 1019.3
20260502120405 28 133 0.0 0.9 0.00 0.00 0.00 98 1019.4
20260502115902 27 157 0.0 0.9 0.00 0.00 0.00 98 1019.4
20260502115359 27 144 0.0 0.9 0.00 0.00 0.00 98 1019.4
20260502114855 27 154 0.0 0.9 0.00 0.00 0.00 98 1019.4
20260502114352 27 175 0.0 1.7 0.00 0.00 0.00 98 1019.5
20260502113849 27 179 0.0 1.7 0.00 0.00 0.00 98 1019.3
20260502113347 26 181 0.0 1.7 0.00 0.00 0.00 98 1019.2
20260502112845 26 145 0.0 1.7 0.00 0.00 0.00 98 1019.4
20260502112342 26 142 0.9 0.9 0.00 0.00 0.00 98 1019.2
20260502111840 26 202 0.0 1.7 0.00 0.00 0.00 98 1019.3
20260502111337 26 160 0.0 1.7 0.00 0.00 0.00 98 1019.3
20260502110834 26 154 0.9 1.7 0.00 0.00 0.00 98 1019.2
20260502110332 26 150 0.9 1.7 0.00 0.00 0.00 98 1019.2
20260502105829 26 304 0.0 0.9 0.00 0.00 0.00 98 1018.9
20260502105326 26 127 1.7 2.6 0.00 0.00 0.00 98 1019.3
20260502104824 26 145 0.0 0.9 0.00 0.00 0.00 98 1019.2
20260502104321 26 166 0.0 0.9 0.00 0.00 0.00 98 1019.4
20260502103818 26 111 0.0 1.7 0.00 0.00 0.00 98 1019.3
20260502103315 26 122 0.0 1.7 0.00 0.00 0.00 98 1019.3
20260502102813 26 149 0.9 1.7 0.00 0.00 0.00 98 1019.4
20260502102309 26 129 0.0 1.7 0.00 0.00 0.00 98 1019.2
20260502101807 26 128 0.9 1.7 0.00 0.00 0.00 98 1019.3
20260502101305 26 114 0.0 0.9 0.00 0.00 0.00 98 1019.2
20260502100803 26 133 0.9 1.7 0.00 0.00 0.00 98 1019.3
20260502100302 26 149 0.9 2.6 0.00 0.00 0.00 98 1019.4
20260502091235 26 184 0.9 1.7 0.00 0.00 0.00 97 1019.5
20260502090733 26 147 0.0 0.9 0.00 0.00 0.00 97 1019.5
20260502090229 26 197 0.0 0.9 0.00 0.00 0.00 97 1019.6
20260502071130 27 166 0.0 0.9 0.00 0.00 0.00 94 1019.9
20260502070628 27 175 0.0 0.9 0.00 0.00 0.00 94 1019.8
20260502070126 27 177 0.9 0.9 0.00 0.00 0.00 94 1020.1
20260502065624 27 180 0.0 0.9 0.00 0.00 0.00 93 1020.1
20260502065121 27 157 0.0 0.0 0.00 0.00 0.00 93 1020.2
20260502064620 28 173 0.0 0.9 0.00 0.00 0.00 93 1019.9
20260502064117 28 160 0.0 0.9 0.00 0.00 0.00 93 1020.1
20260502063614 28 152 0.0 0.9 0.00 0.00 0.00 93 1020.1
20260502063112 28 147 0.0 0.9 0.00 0.00 0.00 93 1020.0
20260502062609 28 186 0.0 0.9 0.00 0.00 0.00 93 1019.9
20260502062106 28 173 0.0 0.9 0.00 0.00 0.00 92 1020.1
20260502061604 28 148 0.0 0.9 0.00 0.00 0.00 92 1020.1
20260502061101 28 147 0.0 0.9 0.00 0.00 0.00 92 1020.0
20260502060556 28 147 0.0 0.9 0.00 0.00 0.00 92 1020.1
20260502060053 29 155 0.0 0.9 0.00 0.00 0.00 92 1020.1
20260502055551 29 184 0.0 0.9 0.00 0.00 0.00 91 1020.1
20260502055049 29 193 0.0 0.9 0.00 0.00 0.00 91 1020.1
20260502054548 29 157 0.0 0.0 0.00 0.00 0.00 90 1019.9
20260502054044 29 157 0.0 0.9 0.00 0.00 0.00 90 1019.9
20260502053541 30 180 0.0 0.9 0.00 0.00 0.00 90 1019.9
20260502053039 30 135 0.0 0.0 0.00 0.00 0.00 89 1019.8
20260502052538 30 147 0.0 0.9 0.00 0.00 0.00 88 1019.8
20260502052035 30 180 0.0 0.0 0.00 0.00 0.00 88 1020.1
20260502051533 31 157 0.0 0.9 0.00 0.00 0.00 87 1020.0
20260502051031 31 120 0.0 0.9 0.00 0.00 0.00 86 1020.0